Time,TemperatureF,DewpointF,PressureIn,WindDirection,WindDirectionDegrees,WindSpeedMPH,WindSpeedGustMPH,Humidity,HourlyPrecipIn,Conditions,Clouds,dailyrainin,SoftwareType,DateUTC
2013-03-16 00:00:00,54.7,42.8,29.98,WNW,282,3.0,3.0,64,0.00,,,0.00,Wunderground v.1.15,2013-03-16 04:00:00,
2013-03-16 00:05:00,54.8,42.9,29.98,WSW,254,3.0,5.0,64,0.00,,,0.00,Wunderground v.1.15,2013-03-16 04:05:00,
2013-03-16 00:10:00,55.0,43.0,29.97,West,276,4.0,7.0,64,0.00,,,0.00,Wunderground v.1.15,2013-03-16 04:10:00,
2013-03-16 00:15:00,55.0,43.0,29.97,WSW,253,4.0,7.0,64,0.00,,,0.00,Wunderground v.1.15,2013-03-16 04:15:00,
2013-03-16 00:20:00,54.9,43.7,29.98,WSW,238,4.0,4.0,66,0.00,,,0.00,Wunderground v.1.15,2013-03-16 04:20:00,
2013-03-16 00:25:00,54.7,43.6,29.97,SSW,193,3.0,4.0,66,0.00,,,0.00,Wunderground v.1.15,2013-03-16 04:25:00,
2013-03-16 00:30:00,54.8,43.7,29.97,WNW,284,3.0,3.0,66,0.00,,,0.00,Wunderground v.1.15,2013-03-16 04:30:00,
2013-03-16 00:40:00,54.8,43.7,29.97,WNW,286,3.0,3.0,66,0.00,,,0.00,Wunderground v.1.15,2013-03-16 04:40:00,
2013-03-16 00:45:00,54.8,43.7,29.96,WSW,252,3.0,4.0,66,0.00,,,0.00,Wunderground v.1.15,2013-03-16 04:45:00,
2013-03-16 00:50:00,54.8,44.0,29.96,West,276,3.0,9.0,67,0.00,,,0.00,Wunderground v.1.15,2013-03-16 04:50:00,
2013-03-16 00:55:00,54.9,44.1,29.96,WSW,256,3.0,9.0,67,0.00,,,0.00,Wunderground v.1.15,2013-03-16 04:55:00,
2013-03-16 01:00:00,54.9,44.1,29.96,WSW,255,3.0,3.0,67,0.00,,,0.00,Wunderground v.1.15,2013-03-16 05:00:00,
2013-03-16 01:10:00,54.9,44.1,29.96,WNW,282,3.0,4.0,67,0.00,,,0.00,Wunderground v.1.15,2013-03-16 05:10:00,
2013-03-16 01:15:00,54.8,44.4,29.96,WSW,244,2.0,4.0,68,0.00,,,0.00,Wunderground v.1.15,2013-03-16 05:15:00,
2013-03-16 01:20:00,54.9,44.9,29.96,West,280,2.0,2.0,69,0.00,,,0.00,Wunderground v.1.15,2013-03-16 05:20:00,
2013-03-16 01:25:00,54.9,44.9,29.96,NW,306,2.0,2.0,69,0.00,,,0.00,Wunderground v.1.15,2013-03-16 05:25:00,
2013-03-16 01:30:00,54.9,44.5,29.96,WSW,253,2.0,2.0,68,0.00,,,0.00,Wunderground v.1.15,2013-03-16 05:30:00,
2013-03-16 01:35:00,55.0,44.6,29.96,West,259,2.0,3.0,68,0.00,,,0.00,Wunderground v.1.15,2013-03-16 05:35:00,
2013-03-16 01:40:00,55.0,45.0,29.95,NW,312,2.0,9.0,69,0.00,,,0.00,Wunderground v.1.15,2013-03-16 05:40:00,
2013-03-16 01:45:00,55.2,44.8,29.95,West,267,2.0,9.0,68,0.00,,,0.00,Wunderground v.1.15,2013-03-16 05:45:00,
2013-03-16 01:55:00,55.3,44.9,29.95,WSW,250,3.0,9.0,68,0.00,,,0.00,Wunderground v.1.15,2013-03-16 05:55:00,
2013-03-16 02:05:00,55.4,45.0,29.95,West,267,3.0,5.0,68,0.00,,,0.00,Wunderground v.1.15,2013-03-16 06:05:00,
2013-03-16 02:10:00,55.3,44.9,29.95,WSW,250,3.0,3.0,68,0.00,,,0.00,Wunderground v.1.15,2013-03-16 06:10:00,
2013-03-16 02:15:00,55.3,44.9,29.95,ESE,107,3.0,3.0,68,0.00,,,0.00,Wunderground v.1.15,2013-03-16 06:15:00,
2013-03-16 02:20:00,55.3,44.9,29.95,West,261,2.0,2.0,68,0.00,,,0.00,Wunderground v.1.15,2013-03-16 06:20:00,
2013-03-16 02:30:00,55.3,45.3,29.94,West,261,1.0,3.0,69,0.00,,,0.00,Wunderground v.1.15,2013-03-16 06:30:00,
2013-03-16 02:35:00,55.5,45.1,29.95,West,263,2.0,8.0,68,0.00,,,0.00,Wunderground v.1.15,2013-03-16 06:35:00,
2013-03-16 02:40:00,55.6,45.6,29.94,WNW,294,2.0,8.0,69,0.00,,,0.00,Wunderground v.1.15,2013-03-16 06:40:00,
2013-03-16 02:45:00,55.6,45.6,29.94,WNW,287,2.0,8.0,69,0.00,,,0.00,Wunderground v.1.15,2013-03-16 06:45:00,
2013-03-16 02:55:00,55.8,45.8,29.94,WSW,257,2.0,8.0,69,0.00,,,0.00,Wunderground v.1.15,2013-03-16 06:55:00,
2013-03-16 03:00:00,56.0,45.6,29.94,West,266,3.0,3.0,68,0.00,,,0.00,Wunderground v.1.15,2013-03-16 07:00:00,
2013-03-16 03:10:00,56.1,45.7,29.93,West,267,3.0,3.0,68,0.00,,,0.00,Wunderground v.1.15,2013-03-16 07:10:00,
2013-03-16 03:15:00,56.1,45.7,29.93,West,265,2.0,3.0,68,0.00,,,0.00,Wunderground v.1.15,2013-03-16 07:15:00,
2013-03-16 03:20:00,56.1,45.7,29.93,WSW,254,2.0,3.0,68,0.00,,,0.00,Wunderground v.1.15,2013-03-16 07:20:00,
2013-03-16 03:25:00,56.2,45.8,29.92,West,276,2.0,5.0,68,0.00,,,0.00,Wunderground v.1.15,2013-03-16 07:25:00,
2013-03-16 03:30:00,56.2,45.8,29.92,West,261,2.0,6.0,68,0.00,,,0.00,Wunderground v.1.15,2013-03-16 07:30:00,
2013-03-16 03:35:00,56.3,45.9,29.92,West,264,2.0,8.0,68,0.00,,,0.00,Wunderground v.1.15,2013-03-16 07:35:00,
2013-03-16 03:40:00,56.5,45.7,29.92,WSW,252,3.0,3.0,67,0.00,,,0.00,Wunderground v.1.15,2013-03-16 07:40:00,
2013-03-16 03:45:00,56.6,45.8,29.92,West,280,2.0,8.0,67,0.00,,,0.00,Wunderground v.1.15,2013-03-16 07:45:00,
2013-03-16 03:50:00,56.8,46.0,29.92,West,263,2.0,8.0,67,0.00,,,0.00,Wunderground v.1.15,2013-03-16 07:50:00,
2013-03-16 04:00:00,57.1,45.8,29.92,WSW,255,3.0,3.0,66,0.00,,,0.00,Wunderground v.1.15,2013-03-16 08:00:00,
2013-03-16 04:10:00,57.2,45.5,29.91,West,266,2.0,3.0,65,0.00,,,0.00,Wunderground v.1.15,2013-03-16 08:10:00,
2013-03-16 04:15:00,57.3,46.0,29.91,West,271,2.0,5.0,66,0.00,,,0.00,Wunderground v.1.15,2013-03-16 08:15:00,
2013-03-16 04:20:00,57.4,45.7,29.91,SSE,165,2.0,2.0,65,0.00,,,0.00,Wunderground v.1.15,2013-03-16 08:20:00,
2013-03-16 04:25:00,57.4,46.1,29.91,WSW,250,2.0,2.0,66,0.00,,,0.00,Wunderground v.1.15,2013-03-16 08:25:00,
2013-03-16 04:30:00,57.4,46.1,29.91,WNW,286,1.0,1.0,66,0.00,,,0.00,Wunderground v.1.15,2013-03-16 08:30:00,
2013-03-16 04:35:00,57.2,45.5,29.91,WNW,283,1.0,2.0,65,0.00,,,0.00,Wunderground v.1.15,2013-03-16 08:35:00,
2013-03-16 04:40:00,57.3,45.6,29.91,SW,232,1.0,1.0,65,0.00,,,0.00,Wunderground v.1.15,2013-03-16 08:40:00,
2013-03-16 04:45:00,57.4,45.7,29.92,East,90,1.0,5.0,65,0.00,,,0.00,Wunderground v.1.15,2013-03-16 08:45:00,
2013-03-16 04:50:00,57.4,45.7,29.92,West,259,1.0,7.0,65,0.00,,,0.00,Wunderground v.1.15,2013-03-16 08:50:00,
2013-03-16 04:55:00,57.5,45.8,29.92,West,265,1.0,7.0,65,0.00,,,0.00,Wunderground v.1.15,2013-03-16 08:55:00,
2013-03-16 05:01:00,57.7,45.2,29.92,West,264,1.0,1.0,63,0.00,,,0.00,Wunderground v.1.15,2013-03-16 09:01:00,
2013-03-16 05:10:00,57.7,45.6,29.92,West,275,0.0,0.0,64,0.00,,,0.00,Wunderground v.1.15,2013-03-16 09:10:00,
2013-03-16 05:15:00,57.7,45.6,29.92,WNW,287,0.0,1.0,64,0.00,,,0.00,Wunderground v.1.15,2013-03-16 09:15:00,
2013-03-16 05:25:00,57.6,45.5,29.92,WNW,300,1.0,1.0,64,0.00,,,0.00,Wunderground v.1.15,2013-03-16 09:25:00,
2013-03-16 05:30:00,57.6,45.5,29.92,WNW,290,1.0,1.0,64,0.00,,,0.00,Wunderground v.1.15,2013-03-16 09:30:00,
2013-03-16 05:35:00,57.7,45.6,29.92,West,264,1.0,2.0,64,0.00,,,0.00,Wunderground v.1.15,2013-03-16 09:35:00,
2013-03-16 05:40:00,57.8,45.3,29.92,WNW,284,1.0,1.0,63,0.00,,,0.00,Wunderground v.1.15,2013-03-16 09:40:00,
2013-03-16 05:50:00,57.9,45.4,29.92,West,274,1.0,1.0,63,0.00,,,0.00,Wunderground v.1.15,2013-03-16 09:50:00,
2013-03-16 05:55:00,57.9,45.4,29.92,West,271,0.0,8.0,63,0.00,,,0.00,Wunderground v.1.15,2013-03-16 09:55:00,
2013-03-16 06:01:00,58.0,45.0,29.92,West,271,1.0,1.0,62,0.00,,,0.00,Wunderground v.1.15,2013-03-16 10:01:00,
2013-03-16 06:10:00,58.2,44.8,29.92,West,269,1.0,1.0,61,0.00,,,0.00,Wunderground v.1.15,2013-03-16 10:10:00,
2013-03-16 06:15:00,58.3,45.3,29.92,West,281,0.0,2.0,62,0.00,,,0.00,Wunderground v.1.15,2013-03-16 10:15:00,
2013-03-16 06:20:00,58.4,45.0,29.92,WNW,282,1.0,3.0,61,0.00,,,0.00,Wunderground v.1.15,2013-03-16 10:20:00,
2013-03-16 06:25:00,58.6,45.2,29.92,WSW,252,1.0,3.0,61,0.00,,,0.00,Wunderground v.1.15,2013-03-16 10:25:00,
2013-03-16 06:30:00,58.7,44.8,29.92,SSE,163,1.0,2.0,60,0.00,,,0.00,Wunderground v.1.15,2013-03-16 10:30:00,
2013-03-16 06:40:00,58.7,45.3,29.92,West,276,1.0,1.0,61,0.00,,,0.00,Wunderground v.1.15,2013-03-16 10:40:00,
2013-03-16 06:45:00,58.9,45.0,29.92,West,262,1.0,7.0,60,0.00,,,0.00,Wunderground v.1.15,2013-03-16 10:45:00,
2013-03-16 06:50:00,58.9,45.0,29.93,West,262,0.0,7.0,60,0.00,,,0.00,Wunderground v.1.15,2013-03-16 10:50:00,
2013-03-16 06:55:00,58.8,44.9,29.93,West,268,3.0,7.0,60,0.00,,,0.00,Wunderground v.1.15,2013-03-16 10:55:00,
2013-03-16 07:00:00,59.0,46.0,29.93,WSW,246,1.0,1.0,62,0.00,,,0.00,Wunderground v.1.15,2013-03-16 11:00:00,
2013-03-16 07:10:00,58.9,45.0,29.93,West,268,1.0,2.0,60,0.00,,,0.00,Wunderground v.1.15,2013-03-16 11:10:00,
2013-03-16 07:15:00,58.7,45.3,29.93,SW,218,1.0,2.0,61,0.00,,,0.00,Wunderground v.1.15,2013-03-16 11:15:00,
2013-03-16 07:20:00,58.7,45.3,29.93,NNE,19,1.0,1.0,61,0.00,,,0.00,Wunderground v.1.15,2013-03-16 11:20:00,
2013-03-16 07:30:00,58.8,44.9,29.93,West,272,1.0,1.0,60,0.00,,,0.00,Wunderground v.1.15,2013-03-16 11:30:00,
2013-03-16 07:35:00,58.8,44.9,29.93,WSW,252,2.0,2.0,60,0.00,,,0.00,Wunderground v.1.15,2013-03-16 11:35:00,
2013-03-16 07:40:00,58.7,45.3,29.93,WNW,301,1.0,1.0,61,0.00,,,0.00,Wunderground v.1.15,2013-03-16 11:40:00,
2013-03-16 07:45:00,58.6,45.6,29.93,West,263,1.0,5.0,62,0.00,,,0.00,Wunderground v.1.15,2013-03-16 11:45:00,
2013-03-16 07:55:00,58.6,45.2,29.93,West,279,2.0,5.0,61,0.00,,,0.00,Wunderground v.1.15,2013-03-16 11:55:00,
2013-03-16 08:00:00,58.5,45.5,29.93,West,279,1.0,3.0,62,0.00,,,0.00,Wunderground v.1.15,2013-03-16 12:00:00,
2013-03-16 08:10:00,58.5,45.5,29.93,West,266,2.0,2.0,62,0.00,,,0.00,Wunderground v.1.15,2013-03-16 12:10:00,
2013-03-16 08:15:00,58.4,45.4,29.93,WSW,257,2.0,2.0,62,0.00,,,0.00,Wunderground v.1.15,2013-03-16 12:15:00,
2013-03-16 08:20:00,58.5,45.5,29.93,West,273,1.0,1.0,62,0.00,,,0.00,Wunderground v.1.15,2013-03-16 12:20:00,
2013-03-16 08:25:00,58.7,45.7,29.93,WSW,254,1.0,3.0,62,0.00,,,0.00,Wunderground v.1.15,2013-03-16 12:25:00,
2013-03-16 08:30:00,58.8,46.2,29.93,WNW,289,1.0,1.0,63,0.00,,,0.00,Wunderground v.1.15,2013-03-16 12:30:00,
2013-03-16 08:40:00,59.0,46.0,29.93,West,278,2.0,7.0,62,0.00,,,0.00,Wunderground v.1.15,2013-03-16 12:40:00,
2013-03-16 08:45:00,59.2,46.2,29.93,West,272,2.0,7.0,62,0.00,,,0.00,Wunderground v.1.15,2013-03-16 12:45:00,
2013-03-16 08:50:00,59.5,46.5,29.93,NE,36,1.0,7.0,62,0.00,,,0.00,Wunderground v.1.15,2013-03-16 12:50:00,
2013-03-16 09:00:00,60.1,46.6,29.93,NNW,342,1.0,1.0,61,0.00,,,0.00,Wunderground v.1.15,2013-03-16 13:00:00,
2013-03-16 09:10:00,61.0,47.0,29.93,WNW,282,2.0,2.0,60,0.00,,,0.00,Wunderground v.1.15,2013-03-16 13:10:00,
2013-03-16 09:15:00,61.4,47.4,29.93,West,265,2.0,2.0,60,0.00,,,0.00,Wunderground v.1.15,2013-03-16 13:15:00,
2013-03-16 09:20:00,61.6,46.7,29.93,West,262,1.0,4.0,58,0.00,,,0.00,Wunderground v.1.15,2013-03-16 13:20:00,
2013-03-16 09:25:00,61.9,47.4,29.93,WNW,290,1.0,4.0,59,0.00,,,0.00,Wunderground v.1.15,2013-03-16 13:25:00,
2013-03-16 09:30:00,62.2,47.7,29.93,West,277,1.0,2.0,59,0.00,,,0.00,Wunderground v.1.15,2013-03-16 13:30:00,
2013-03-16 09:35:00,62.4,47.4,29.93,WNW,285,1.0,6.0,58,0.00,,,0.00,Wunderground v.1.15,2013-03-16 13:35:00,
2013-03-16 09:40:00,62.5,48.0,29.93,WNW,301,1.0,1.0,59,0.00,,,0.00,Wunderground v.1.15,2013-03-16 13:40:00,
2013-03-16 09:45:00,62.5,47.1,29.93,West,277,1.0,6.0,57,0.00,,,0.00,Wunderground v.1.15,2013-03-16 13:45:00,
2013-03-16 09:50:00,62.5,47.1,29.93,West,275,1.0,1.0,57,0.00,,,0.00,Wunderground v.1.15,2013-03-16 13:50:00,
2013-03-16 09:55:00,63.0,47.5,29.92,WNW,285,1.0,6.0,57,0.00,,,0.00,Wunderground v.1.15,2013-03-16 13:55:00,
2013-03-16 10:05:00,64.6,48.1,29.92,West,275,1.0,2.0,55,0.00,,,0.00,Wunderground v.1.15,2013-03-16 14:05:00,
2013-03-16 10:10:00,65.4,48.3,29.92,North,355,1.0,1.0,54,0.00,,,0.00,Wunderground v.1.15,2013-03-16 14:10:00,
2013-03-16 10:20:00,66.8,49.1,29.92,NNE,22,1.0,1.0,53,0.00,,,0.00,Wunderground v.1.15,2013-03-16 14:20:00,
2013-03-16 10:25:00,67.5,48.7,29.92,WSW,247,1.0,1.0,51,0.00,,,0.00,Wunderground v.1.15,2013-03-16 14:25:00,
2013-03-16 10:30:00,68.0,48.7,29.91,NNE,18,1.0,3.0,50,0.00,,,0.00,Wunderground v.1.15,2013-03-16 14:30:00,
2013-03-16 10:35:00,68.3,49.5,29.91,NW,316,2.0,8.0,51,0.00,,,0.00,Wunderground v.1.15,2013-03-16 14:35:00,
2013-03-16 10:40:00,68.9,49.5,29.91,NW,308,1.0,8.0,50,0.00,,,0.00,Wunderground v.1.15,2013-03-16 14:40:00,
2013-03-16 10:45:00,69.5,48.9,29.91,West,279,1.0,8.0,48,0.00,,,0.00,Wunderground v.1.15,2013-03-16 14:45:00,
2013-03-16 10:50:00,70.0,48.8,29.90,NNW,331,2.0,2.0,47,0.00,,,0.00,Wunderground v.1.15,2013-03-16 14:50:00,
2013-03-16 10:55:00,70.8,49.6,29.90,WSW,246,1.0,8.0,47,0.00,,,0.00,Wunderground v.1.15,2013-03-16 14:55:00,
2013-03-16 11:01:00,71.7,49.2,29.90,North,350,1.0,1.0,45,0.00,,,0.00,Wunderground v.1.15,2013-03-16 15:01:00,
2013-03-16 11:10:00,72.8,49.6,29.90,West,267,1.0,1.0,44,0.00,,,0.00,Wunderground v.1.15,2013-03-16 15:10:00,
2013-03-16 11:15:00,73.0,49.8,29.90,NE,37,2.0,2.0,44,0.00,,,0.00,Wunderground v.1.15,2013-03-16 15:15:00,
2013-03-16 11:20:00,73.5,48.4,29.89,South,173,2.0,2.0,41,0.00,,,0.00,Wunderground v.1.15,2013-03-16 15:20:00,
2013-03-16 11:30:00,74.4,49.2,29.89,NNW,338,2.0,2.0,41,0.00,,,0.00,Wunderground v.1.15,2013-03-16 15:30:00,
2013-03-16 11:35:00,74.4,49.2,29.89,South,178,2.0,7.0,41,0.00,,,0.00,Wunderground v.1.15,2013-03-16 15:35:00,
2013-03-16 11:40:00,74.2,48.3,29.89,West,277,3.0,7.0,40,0.00,,,0.00,Wunderground v.1.15,2013-03-16 15:40:00,
2013-03-16 11:45:00,74.5,49.2,29.89,South,188,2.0,7.0,41,0.00,,,0.00,Wunderground v.1.15,2013-03-16 15:45:00,
2013-03-16 11:50:00,75.2,51.2,29.88,East,94,1.0,1.0,43,0.00,,,0.00,Wunderground v.1.15,2013-03-16 15:50:00,
2013-03-16 12:01:00,76.6,49.1,29.88,WNW,284,1.0,1.0,38,0.00,,,0.00,Wunderground v.1.15,2013-03-16 16:01:00,
2013-03-16 12:10:00,76.7,49.2,29.88,NW,307,2.0,3.0,38,0.00,,,0.00,Wunderground v.1.15,2013-03-16 16:10:00,
2013-03-16 12:15:00,77.0,48.7,29.87,WSW,246,3.0,3.0,37,0.00,,,0.00,Wunderground v.1.15,2013-03-16 16:15:00,
2013-03-16 12:20:00,77.2,48.9,29.87,NW,318,3.0,3.0,37,0.00,,,0.00,Wunderground v.1.15,2013-03-16 16:20:00,
2013-03-16 12:25:00,77.3,49.7,29.87,NNE,15,2.0,3.0,38,0.00,,,0.00,Wunderground v.1.15,2013-03-16 16:25:00,
2013-03-16 12:35:00,77.9,48.8,29.87,West,263,2.0,11.0,36,0.00,,,0.00,Wunderground v.1.15,2013-03-16 16:35:00,
2013-03-16 12:40:00,77.7,49.3,29.87,NNE,28,2.0,11.0,37,0.00,,,0.00,Wunderground v.1.15,2013-03-16 16:40:00,
2013-03-16 12:45:00,77.8,50.9,29.86,NW,315,3.0,11.0,39,0.00,,,0.00,Wunderground v.1.15,2013-03-16 16:45:00,
2013-03-16 12:50:00,78.4,50.0,29.86,NW,317,2.0,11.0,37,0.00,,,0.00,Wunderground v.1.15,2013-03-16 16:50:00,
2013-03-16 12:55:00,78.7,51.0,29.86,NNW,329,2.0,11.0,38,0.00,,,0.00,Wunderground v.1.15,2013-03-16 16:55:00,
2013-03-16 13:01:00,78.9,51.8,29.85,WSW,240,2.0,3.0,39,0.00,,,0.00,Wunderground v.1.15,2013-03-16 17:01:00,
2013-03-16 13:10:00,79.1,50.6,29.85,NE,48,3.0,3.0,37,0.00,,,0.00,Wunderground v.1.15,2013-03-16 17:10:00,
2013-03-16 13:20:00,79.5,48.7,29.83,WSW,242,3.0,9.0,34,0.00,,,0.00,Wunderground v.1.15,2013-03-16 17:20:00,
2013-03-16 13:25:00,78.9,48.9,29.84,West,263,4.0,9.0,35,0.00,,,0.00,Wunderground v.1.15,2013-03-16 17:25:00,
2013-03-16 13:30:00,79.0,49.8,29.84,ENE,77,4.0,4.0,36,0.00,,,0.00,Wunderground v.1.15,2013-03-16 17:30:00,
2013-03-16 13:35:00,79.9,50.6,29.83,WNW,300,3.0,9.0,36,0.00,,,0.00,Wunderground v.1.15,2013-03-16 17:35:00,
2013-03-16 13:45:00,80.0,49.9,29.83,SSW,198,3.0,9.0,35,0.00,,,0.00,Wunderground v.1.15,2013-03-16 17:45:00,
2013-03-16 13:50:00,80.6,49.6,29.83,East,86,2.0,9.0,34,0.00,,,0.00,Wunderground v.1.15,2013-03-16 17:50:00,
2013-03-16 13:55:00,81.2,50.9,29.82,NW,323,2.0,9.0,35,0.00,,,0.00,Wunderground v.1.15,2013-03-16 17:55:00,
2013-03-16 14:01:00,81.1,50.1,29.82,West,274,2.0,3.0,34,0.00,,,0.00,Wunderground v.1.15,2013-03-16 18:01:00,
2013-03-16 14:10:00,81.0,51.5,29.82,NNW,339,2.0,2.0,36,0.00,,,0.00,Wunderground v.1.15,2013-03-16 18:10:00,
2013-03-16 14:15:00,80.6,49.6,29.81,NW,304,2.0,2.0,34,0.00,,,0.00,Wunderground v.1.15,2013-03-16 18:15:00,
2013-03-16 14:20:00,79.6,49.5,29.81,SW,236,3.0,4.0,35,0.00,,,0.00,Wunderground v.1.15,2013-03-16 18:20:00,
2013-03-16 14:25:00,79.5,48.7,29.81,West,279,4.0,4.0,34,0.00,,,0.00,Wunderground v.1.15,2013-03-16 18:25:00,
2013-03-16 14:30:00,79.1,49.8,29.81,West,267,3.0,3.0,36,0.00,,,0.00,Wunderground v.1.15,2013-03-16 18:30:00,
2013-03-16 14:40:00,78.9,50.4,29.80,West,261,3.0,3.0,37,0.00,,,0.00,Wunderground v.1.15,2013-03-16 18:40:00,
2013-03-16 14:45:00,79.3,49.3,29.79,WSW,249,4.0,4.0,35,0.00,,,0.00,Wunderground v.1.15,2013-03-16 18:45:00,
2013-03-16 14:55:00,80.3,50.1,29.79,West,265,3.0,14.0,35,0.00,,,0.00,Wunderground v.1.15,2013-03-16 18:55:00,
2013-03-16 15:00:00,80.2,48.5,29.79,West,273,4.0,4.0,33,0.00,,,0.00,Wunderground v.1.15,2013-03-16 19:00:00,
2013-03-16 15:10:00,80.2,50.1,29.79,NNE,15,4.0,4.0,35,0.00,,,0.00,Wunderground v.1.15,2013-03-16 19:10:00,
2013-03-16 15:15:00,80.6,48.8,29.79,NW,314,2.0,4.0,33,0.00,,,0.00,Wunderground v.1.15,2013-03-16 19:15:00,
2013-03-16 15:25:00,81.3,48.6,29.79,West,259,2.0,2.0,32,0.00,,,0.00,Wunderground v.1.15,2013-03-16 19:25:00,
2013-03-16 15:30:00,80.5,47.1,29.78,West,281,4.0,8.0,31,0.00,,,0.00,Wunderground v.1.15,2013-03-16 19:30:00,
2013-03-16 15:35:00,80.2,49.3,29.78,West,271,5.0,11.0,34,0.00,,,0.00,Wunderground v.1.15,2013-03-16 19:35:00,
2013-03-16 15:45:00,80.4,47.0,29.78,NW,313,3.0,11.0,31,0.00,,,0.00,Wunderground v.1.15,2013-03-16 19:45:00,
2013-03-16 15:50:00,80.3,47.7,29.78,West,265,4.0,4.0,32,0.00,,,0.00,Wunderground v.1.15,2013-03-16 19:50:00,
2013-03-16 16:00:00,80.9,48.3,29.78,WSW,250,2.0,2.0,32,0.00,,,0.00,Wunderground v.1.15,2013-03-16 20:00:00,
2013-03-16 16:10:00,81.7,48.1,29.78,WNW,282,2.0,7.0,31,0.00,,,0.00,Wunderground v.1.15,2013-03-16 20:10:00,
2013-03-16 16:15:00,81.2,45.9,29.78,WNW,285,3.0,7.0,29,0.00,,,0.00,Wunderground v.1.15,2013-03-16 20:15:00,
2013-03-16 16:20:00,81.1,46.7,29.78,NE,34,3.0,4.0,30,0.00,,,0.00,Wunderground v.1.15,2013-03-16 20:20:00,
2013-03-16 16:25:00,81.1,47.6,29.77,NNW,333,2.0,4.0,31,0.00,,,0.00,Wunderground v.1.15,2013-03-16 20:25:00,
2013-03-16 16:35:00,81.3,46.9,29.77,NNE,15,2.0,4.0,30,0.00,,,0.00,Wunderground v.1.15,2013-03-16 20:35:00,
2013-03-16 16:40:00,81.2,46.8,29.77,WNW,293,1.0,13.0,30,0.00,,,0.00,Wunderground v.1.15,2013-03-16 20:40:00,
2013-03-16 16:45:00,80.9,48.3,29.77,North,5,2.0,13.0,32,0.00,,,0.00,Wunderground v.1.15,2013-03-16 20:45:00,
2013-03-16 16:50:00,80.5,47.1,29.77,WNW,299,2.0,2.0,31,0.00,,,0.00,Wunderground v.1.15,2013-03-16 20:50:00,
2013-03-16 16:55:00,80.3,46.0,29.77,WNW,284,3.0,3.0,30,0.00,,,0.00,Wunderground v.1.15,2013-03-16 20:55:00,
2013-03-16 17:01:00,79.9,46.6,29.77,West,281,4.0,4.0,31,0.00,,,0.00,Wunderground v.1.15,2013-03-16 21:01:00,
2013-03-16 17:10:00,79.5,47.1,29.77,West,267,4.0,4.0,32,0.00,,,0.00,Wunderground v.1.15,2013-03-16 21:10:00,
2013-03-16 17:15:00,79.1,46.7,29.77,WSW,248,4.0,4.0,32,0.00,,,0.00,Wunderground v.1.15,2013-03-16 21:15:00,
2013-03-16 17:25:00,78.8,47.3,29.77,NW,305,4.0,5.0,33,0.00,,,0.00,Wunderground v.1.15,2013-03-16 21:25:00,
2013-03-16 17:30:00,78.8,44.7,29.77,West,272,3.0,3.0,30,0.00,,,0.00,Wunderground v.1.15,2013-03-16 21:30:00,
2013-03-16 17:35:00,78.8,47.3,29.77,SW,225,3.0,16.0,33,0.00,,,0.00,Wunderground v.1.15,2013-03-16 21:35:00,
2013-03-16 17:45:00,78.2,44.2,29.78,WSW,256,2.0,16.0,30,0.00,,,0.00,Wunderground v.1.15,2013-03-16 21:45:00,
2013-03-16 17:50:00,78.2,45.1,29.78,West,267,2.0,16.0,31,0.00,,,0.00,Wunderground v.1.15,2013-03-16 21:50:00,
2013-03-16 17:55:00,78.2,45.9,29.78,East,101,3.0,16.0,32,0.00,,,0.00,Wunderground v.1.15,2013-03-16 21:55:00,
2013-03-16 18:01:00,77.9,45.7,29.77,West,260,4.0,4.0,32,0.00,,,0.00,Wunderground v.1.15,2013-03-16 22:01:00,
2013-03-16 18:10:00,77.7,45.5,29.78,West,278,3.0,3.0,32,0.00,,,0.00,Wunderground v.1.15,2013-03-16 22:10:00,
2013-03-16 18:15:00,77.6,45.4,29.78,West,261,3.0,5.0,32,0.00,,,0.00,Wunderground v.1.15,2013-03-16 22:15:00,
2013-03-16 18:20:00,77.5,45.3,29.78,West,259,3.0,7.0,32,0.00,,,0.00,Wunderground v.1.15,2013-03-16 22:20:00,
2013-03-16 18:30:00,76.9,44.8,29.78,WNW,284,3.0,3.0,32,0.00,,,0.00,Wunderground v.1.15,2013-03-16 22:30:00,
2013-03-16 18:35:00,76.7,44.6,29.78,WSW,242,2.0,7.0,32,0.00,,,0.00,Wunderground v.1.15,2013-03-16 22:35:00,
2013-03-16 18:40:00,76.6,44.5,29.78,WSW,258,3.0,14.0,32,0.00,,,0.00,Wunderground v.1.15,2013-03-16 22:40:00,
2013-03-16 18:50:00,76.2,45.0,29.78,West,279,3.0,14.0,33,0.00,,,0.00,Wunderground v.1.15,2013-03-16 22:50:00,
2013-03-16 18:55:00,76.1,44.1,29.78,West,265,3.0,14.0,32,0.00,,,0.00,Wunderground v.1.15,2013-03-16 22:55:00,
2013-03-16 19:00:00,75.9,44.7,29.79,West,268,3.0,3.0,33,0.00,,,0.00,Wunderground v.1.15,2013-03-16 23:00:00,
2013-03-16 19:10:00,75.3,45.0,29.78,West,272,3.0,3.0,34,0.00,,,0.00,Wunderground v.1.15,2013-03-16 23:10:00,
2013-03-16 19:15:00,75.0,45.5,29.79,WSW,250,3.0,3.0,35,0.00,,,0.00,Wunderground v.1.15,2013-03-16 23:15:00,
2013-03-16 19:20:00,74.5,45.0,29.79,West,259,2.0,2.0,35,0.00,,,0.00,Wunderground v.1.15,2013-03-16 23:20:00,
2013-03-16 19:25:00,74.3,45.6,29.79,WSW,246,2.0,5.0,36,0.00,,,0.00,Wunderground v.1.15,2013-03-16 23:25:00,
2013-03-16 19:30:00,74.0,45.3,29.79,West,271,2.0,3.0,36,0.00,,,0.00,Wunderground v.1.15,2013-03-16 23:30:00,
2013-03-16 19:40:00,73.8,45.9,29.80,WSW,238,2.0,13.0,37,0.00,,,0.00,Wunderground v.1.15,2013-03-16 23:40:00,
2013-03-16 19:45:00,73.6,45.7,29.80,ESE,121,2.0,13.0,37,0.00,,,0.00,Wunderground v.1.15,2013-03-16 23:45:00,
2013-03-16 19:50:00,73.4,45.5,29.80,West,279,2.0,13.0,37,0.00,,,0.00,Wunderground v.1.15,2013-03-16 23:50:00,
2013-03-16 20:00:00,72.7,45.6,29.80,WSW,246,2.0,2.0,38,0.00,,,0.00,Wunderground v.1.15,2013-03-17 00:00:00,
2013-03-16 20:10:00,72.2,45.9,29.81,West,275,2.0,2.0,39,0.00,,,0.00,Wunderground v.1.15,2013-03-17 00:10:00,
2013-03-16 20:15:00,72.1,45.8,29.81,WSW,243,2.0,2.0,39,0.00,,,0.00,Wunderground v.1.15,2013-03-17 00:15:00,
2013-03-16 20:20:00,71.8,46.2,29.81,NW,308,1.0,1.0,40,0.00,,,0.00,Wunderground v.1.15,2013-03-17 00:20:00,
2013-03-16 20:30:00,71.5,46.6,29.82,West,273,1.0,1.0,41,0.00,,,0.00,Wunderground v.1.15,2013-03-17 00:30:00,
2013-03-16 20:40:00,71.0,46.1,29.82,WSW,249,1.0,9.0,41,0.00,,,0.00,Wunderground v.1.15,2013-03-17 00:40:00,
2013-03-16 20:45:00,70.8,46.6,29.83,West,279,1.0,9.0,42,0.00,,,0.00,Wunderground v.1.15,2013-03-17 00:45:00,
2013-03-16 20:50:00,70.4,46.2,29.83,West,266,1.0,1.0,42,0.00,,,0.00,Wunderground v.1.15,2013-03-17 00:50:00,
2013-03-16 20:55:00,70.1,45.9,29.83,West,261,0.0,9.0,42,0.00,,,0.00,Wunderground v.1.15,2013-03-17 00:55:00,
2013-03-16 21:00:00,69.7,46.2,29.83,WSW,254,0.0,1.0,43,0.00,,,0.00,Wunderground v.1.15,2013-03-17 01:00:00,
2013-03-16 21:10:00,69.3,45.8,29.84,West,260,1.0,1.0,43,0.00,,,0.00,Wunderground v.1.15,2013-03-17 01:10:00,
2013-03-16 21:15:00,69.5,45.4,29.84,West,265,1.0,2.0,42,0.00,,,0.00,Wunderground v.1.15,2013-03-17 01:15:00,
2013-03-16 21:25:00,69.9,46.4,29.84,West,272,2.0,2.0,43,0.00,,,0.00,Wunderground v.1.15,2013-03-17 01:25:00,
2013-03-16 21:30:00,69.7,45.6,29.85,ENE,69,1.0,1.0,42,0.00,,,0.00,Wunderground v.1.15,2013-03-17 01:30:00,
2013-03-16 21:40:00,69.3,45.2,29.85,West,271,1.0,6.0,42,0.00,,,0.00,Wunderground v.1.15,2013-03-17 01:40:00,
2013-03-16 21:45:00,69.3,45.8,29.86,East,86,1.0,6.0,43,0.00,,,0.00,Wunderground v.1.15,2013-03-17 01:45:00,
2013-03-16 21:50:00,69.1,45.7,29.86,West,264,0.0,6.0,43,0.00,,,0.00,Wunderground v.1.15,2013-03-17 01:50:00,
2013-03-16 21:55:00,68.8,45.4,29.86,WNW,286,0.0,6.0,43,0.00,,,0.00,Wunderground v.1.15,2013-03-17 01:55:00,
2013-03-16 22:01:00,68.5,45.1,29.86,West,279,0.0,1.0,43,0.00,,,0.00,Wunderground v.1.15,2013-03-17 02:01:00,
2013-03-16 22:10:00,68.3,44.9,29.86,WSW,238,1.0,1.0,43,0.00,,,0.00,Wunderground v.1.15,2013-03-17 02:10:00,
2013-03-16 22:15:00,68.3,44.3,29.87,West,265,1.0,1.0,42,0.00,,,0.00,Wunderground v.1.15,2013-03-17 02:15:00,
2013-03-16 22:20:00,68.4,45.0,29.87,SSW,200,1.0,1.0,43,0.00,,,0.00,Wunderground v.1.15,2013-03-17 02:20:00,
2013-03-16 22:30:00,67.9,45.2,29.87,WNW,292,0.0,0.0,44,0.00,,,0.00,Wunderground v.1.15,2013-03-17 02:30:00,
2013-03-16 22:35:00,67.8,45.1,29.87,West,263,1.0,1.0,44,0.00,,,0.00,Wunderground v.1.15,2013-03-17 02:35:00,
2013-03-16 22:40:00,67.8,45.1,29.87,WNW,290,1.0,1.0,44,0.00,,,0.00,Wunderground v.1.15,2013-03-17 02:40:00,
2013-03-16 22:50:00,67.7,45.0,29.87,WSW,253,1.0,6.0,44,0.00,,,0.00,Wunderground v.1.15,2013-03-17 02:50:00,
2013-03-16 22:55:00,67.8,45.7,29.88,West,261,1.0,6.0,45,0.00,,,0.00,Wunderground v.1.15,2013-03-17 02:55:00,
2013-03-16 23:01:00,67.0,47.2,29.88,SW,226,1.0,2.0,49,0.00,,,0.00,Wunderground v.1.15,2013-03-17 03:01:00,
2013-03-16 23:10:00,65.4,46.3,29.88,WSW,257,1.0,1.0,50,0.00,,,0.00,Wunderground v.1.15,2013-03-17 03:10:00,
2013-03-16 23:20:00,64.2,47.2,29.88,West,272,1.0,1.0,54,0.00,,,0.00,Wunderground v.1.15,2013-03-17 03:20:00,
2013-03-16 23:30:00,63.3,47.3,29.88,West,267,1.0,1.0,56,0.00,,,0.00,Wunderground v.1.15,2013-03-17 03:30:00,
2013-03-16 23:35:00,62.7,47.2,29.88,West,267,1.0,5.0,57,0.00,,,0.00,Wunderground v.1.15,2013-03-17 03:35:00,
2013-03-16 23:40:00,62.2,46.8,29.88,West,267,0.0,5.0,57,0.00,,,0.00,Wunderground v.1.15,2013-03-17 03:40:00,
2013-03-16 23:45:00,61.8,46.9,29.89,West,267,0.0,5.0,58,0.00,,,0.00,Wunderground v.1.15,2013-03-17 03:45:00,
2013-03-16 23:50:00,61.4,47.4,29.89,West,267,0.0,5.0,60,0.00,,,0.00,Wunderground v.1.15,2013-03-17 03:50:00,
2013-03-16 23:55:00,61.1,47.5,29.89,West,267,0.0,5.0,61,0.00,,,0.00,Wunderground v.1.15,2013-03-17 03:55:00,